Flag for U.S.A. Weather past 2 weeks in Sedona, Arizona, U.S.A.

Now
70 °F

Sunny.


Feels Like: 70 °F
Forecast: 56 / 75 °F
Wind: 5 mph from South

Location: Sedona Airport

Current Time: Oct 21, 2014 at 10:41:58 AM

Latest Report: Oct 21, 2014 at 10:15 AM


Visibility: 10 mi

Pressure: 30.10 "Hg

Humidity: 38%

Dew point: 43 °F

Location of SedonaLocation

Historic Weather in Sedona — Graph

°F

Sedona temperature yesterday

Maximum temperature yesterday: 77 °F (at 1:55 PM)
Minimum temperature yesterday: 54 °F (at 5:35 AM)
Average temperature yesterday: 64 °F

Past Weeks' High & Low Weather Summary

 TemperatureHumidityPressure
High86 °F (Oct 6, 2:15 PM)94% (Oct 9, 1:35 AM)30.25 "Hg (Oct 9, 1:35 AM)
Low54 °F (Oct 9, 3:15 AM)11% (Oct 12, 4:15 PM)29.94 "Hg (Oct 12, 2:15 PM)
Average66 °F39%30.10 "Hg
* Reported Oct 6 9:15 AM — Oct 21 9:35 AM, Sedona, Weather by CustomWeather, © 2014

Note: Actual official high and low records may vary slightly from our data, if they occured in-between our weather recording intervals... More about our weather records

Advertising

Sedona weather history for previous 24 hours

 ConditionsComfort  
Time TempWeatherWind HumidityBarometerVisibility
9:35 AM
Oct 21
70 °FSunny.3 mph38%30.10 "Hg10 mi
9:15 AM66 °FSunny.No wind43%30.11 "Hg10 mi
8:55 AM64 °FSunny.3 mph46%30.10 "Hg10 mi
8:35 AM63 °FSunny.5 mph49%30.11 "Hg10 mi
8:15 AM61 °FSunny.8 mph52%30.10 "Hg10 mi
7:55 AM59 °FSunny.7 mph51%30.10 "Hg10 mi
7:35 AM59 °FSunny.8 mph51%30.09 "Hg10 mi
7:15 AM55 °FSunny.9 mph59%30.08 "Hg10 mi
6:55 AM55 °FSunny.10 mph59%30.07 "Hg10 mi
6:35 AM55 °FClear.8 mph59%30.07 "Hg10 mi
6:15 AM55 °FClear.10 mph63%30.07 "Hg10 mi
5:55 AM54 °FClear.9 mph63%30.07 "Hg10 mi
5:35 AM55 °FClear.8 mph59%30.06 "Hg10 mi
5:15 AM55 °FClear.6 mph59%30.06 "Hg10 mi
4:55 AM55 °FClear.9 mph59%30.06 "Hg10 mi
4:35 AM55 °FClear.8 mph59%30.06 "Hg10 mi
4:15 AM55 °FClear.9 mph59%30.06 "Hg10 mi
3:55 AM55 °FClear.9 mph59%30.06 "Hg10 mi
3:35 AM57 °FClear.8 mph55%30.06 "Hg10 mi
3:15 AM57 °FClear.9 mph55%30.06 "Hg10 mi
2:55 AM55 °FClear.9 mph59%30.06 "Hg10 mi
2:35 AM55 °FClear.12 mph59%30.07 "Hg10 mi
2:15 AM57 °FClear.9 mph55%30.07 "Hg10 mi
1:55 AM57 °FClear.8 mph55%30.08 "Hg10 mi
1:35 AM57 °FClear.8 mph55%30.08 "Hg10 mi
1:15 AM57 °FClear.9 mph55%30.08 "Hg10 mi
12:55 AM59 °FClear.9 mph55%30.08 "Hg10 mi
12:35 AM59 °FClear.8 mph55%30.07 "Hg10 mi
12:15 AM59 °FClear.7 mph55%30.07 "Hg10 mi
11:55 PM
Oct 20
59 °FClear.9 mph55%30.07 "Hg10 mi
11:35 PM59 °FClear.9 mph55%30.07 "Hg10 mi
11:15 PM59 °FClear.8 mph55%30.07 "Hg10 mi
10:55 PM61 °FClear.8 mph52%30.07 "Hg10 mi
10:35 PM61 °FClear.8 mph52%30.07 "Hg10 mi
10:15 PM61 °FClear.8 mph52%30.07 "Hg10 mi
9:55 PM63 °FClear.9 mph49%30.07 "Hg10 mi
9:35 PM61 °FClear.9 mph55%30.07 "Hg10 mi
9:15 PM63 °FClear.8 mph52%30.06 "Hg10 mi
8:55 PM63 °FClear.8 mph52%30.06 "Hg10 mi
8:15 PM64 °FClear.6 mph49%30.05 "Hg10 mi
7:55 PM64 °FClear.8 mph49%30.05 "Hg10 mi
7:35 PM66 °FClear.7 mph43%30.05 "Hg10 mi
7:15 PM66 °FClear.7 mph46%30.05 "Hg10 mi
6:55 PM68 °FClear.6 mph40%30.05 "Hg10 mi
6:35 PM68 °FClear.6 mph43%30.04 "Hg10 mi
6:15 PM68 °FClear.5 mph33%30.03 "Hg10 mi
5:55 PM70 °FClear.3 mph31%30.03 "Hg10 mi
5:15 PM72 °FSunny.7 mph29%30.02 "Hg10 mi
4:55 PM73 °FSunny.3 mph27%30.03 "Hg10 mi
4:15 PM75 °FSunny.5 mph25%30.03 "Hg10 mi
3:55 PM77 °FSunny.6 mph24%30.04 "Hg10 mi
3:15 PM73 °FSunny.7 mph27%30.04 "Hg10 mi
2:55 PM75 °FSunny.5 mph25%30.05 "Hg10 mi
2:15 PM75 °FSunny.6 mph29%30.05 "Hg10 mi
1:55 PM77 °FSunny.No wind28%30.06 "Hg10 mi
1:35 PM73 °FSunny.5 mph31%30.06 "Hg10 mi
1:15 PM73 °FSunny.8 mph31%30.06 "Hg10 mi
12:55 PM73 °FSunny.8 mph31%30.08 "Hg10 mi
12:35 PM72 °FSunny.6 mph33%30.08 "Hg10 mi
12:15 PM72 °FSunny.6 mph33%30.09 "Hg10 mi
11:55 AM73 °FSunny.6 mph31%30.10 "Hg10 mi
11:35 AM72 °FSunny.5 mph33%30.10 "Hg10 mi
11:15 AM70 °FSunny.6 mph35%30.11 "Hg10 mi
10:55 AM72 °FSunny.No wind33%30.11 "Hg10 mi
10:15 AM70 °FSunny.5 mph35%30.12 "Hg10 mi
Weather by CustomWeather, © 2014

See weather overviewHow to use our weather pages